Regional Weather Roundup
Issued by NWS Northern Indiana

Home | Current Version | Previous Version | Text Only | Print | Product List | Glossary Off
Versions: 1 2 3 4 5 6 7 8 9 10 11 12 13 14 15 16 17 18 19 20 21 22 23 24 25 26 27 28 29 30 31 32 33 34 35 36 37 38 39 40 41 42 43 44 45 46 47 48 49 50

809
ASUS43 KIWX 110410
RWRIWX

KIWX WEATHER ROUNDUP
NATIONAL WEATHER SERVICE NORTHERN INDIANA
1100 PM EST SAT DEC 10 2016

NOTE: "FAIR" INDICATES FEW OR NO CLOUDS BELOW 12,000 FEET WITH NO
SIGNIFICANT WEATHER AND/OR OBSTRUCTIONS TO VISIBILITY.

* THESE STATIONS ARE NOT UNDER NWS QUALITY CONTROL. THEY ALSO MAY NOT
  REPORT WEATHER SUCH AS PRECIPITATION OR FOG.

INZ001>027-110500-
NORTHERN INDIANA

CITY           SKY/WX    TMP DP  RH WIND       PRES   REMARKS
GARY*          LGT SNOW  25  23  93 SE5       30.34F WCI  19
VALPARAISO     LGT SNOW  24  21  88 MISG      30.34F FOG
MICHIGAN CITY* LGT SNOW  23  23 100 CALM      30.35F
LAPORTE*       LGT SNOW  23  21  93 S6        30.35S WCI  15
KNOX*          CLOUDY    23  10  58 S7        30.35F WCI  15
SOUTH BEND     LGT SNOW  22  20  92 S5        30.36S FOG     WCI  16
GOSHEN         LGT SNOW  23  19  85 S5        30.36S FOG     WCI  17
MONTICELLO*    LGT SNOW  24  20  84 SE3       30.36S
LOGANSPORT*    LGT SNOW  25  23  93 SE5       30.37S WCI  19
ROCHESTER*     LGT SNOW  27  27 100 S5        30.36S WCI  21
WARSAW*        LGT SNOW  23  19  86 CALM      30.36R
ANGOLA*        CLOUDY    21  19  93 S6        30.35S WCI  14
FORT WAYNE     LGT SNOW  24  21  88 S8        30.38S FOG     WCI  15
HUNTINGTON*    LGT SNOW  23  22  96 S3        30.37F
PERU/GRISSOM   LGT SNOW  23  23 100 SE6       30.35S FOG     WCI  16
MARION*        LGT SNOW  24  22  94 SE5       30.38R WCI  18

$$
INZ028>050-110500-
CENTRAL INDIANA

CITY           SKY/WX    TMP DP  RH WIND       PRES   REMARKS
LAFAYETTE      LGT SNOW  25  23  92 SE7       30.36S FOG     WCI  17
KOKOMO*        LGT SNOW  24  22  91 SE8       30.37S FOG     WCI  15
MUNCIE*        LGT SNOW  26  22  84 SE3       30.38R FOG
INDIANAPOLIS   CLOUDY    28  17  63 S7        30.35S WCI  21

$$
MIZ043>046-050>051-056>058-064>065-071>073-077>080-110500-
SOUTHWEST LOWER MICHIGAN

CITY           SKY/WX    TMP DP  RH WIND       PRES   REMARKS
BATTLE CREEK   CLOUDY    22  16  78 S8        30.34F WCI  12
BENTON HARBOR  LGT SNOW  23  19  85 SE6       30.35S FOG     WCI  16
COLDWATER*     CLOUDY    23  19  85 S5        30.35S WCI  17
HILLSDALE*     CLOUDY    23  16  74 S6        30.33F WCI  16
HOLLAND        LGT SNOW  22  19  89 S9        30.33S FOG     WCI  12
GRAND RAPIDS   LGT SNOW  22  17  81 S9        30.34S WCI  12
KALAMAZOO      CLOUDY    23  15  71 S12       30.35S WCI  12
STURGIS*       LGT SNOW  22  20  93 S6        30.35S WCI  15
THREE RIVERS*  LGT SNOW  23  20  89 S5        30.35F WCI  16

$$
OHZ001>008-015>018-024>025-110500-
NORTHWEST OHIO

CITY           SKY/WX    TMP DP  RH WIND       PRES   REMARKS
WAUSEON*       MIX PCPN  23  21  93 S8        30.39S WCI  14
DEFIANCE       LGT SNOW  24  20  84 S3        30.40S FOG
FINDLAY        LGT SNOW  24  19  81 S6        30.39F WCI  17
TOLEDO EXPRESS CLOUDY    24  18  77 S7        30.40F WCI  16
TOLEDO METCALF CLOUDY    25  18  74 S7        30.41F WCI  17
LIMA           LGT SNOW  24  22  91 S5        30.38S FOG     WCI  18

$$
AND FOR LAKE MICHIGAN COASTAL AND OPEN LAKE BUOY OBSERVATIONS

STATION/POSITION TEMP    WIND        PRES    VSBY  WAVE
                 AIR SEA DIR/SP/G                  HT/PER
                 (F)     (DEG/KT/KT) (MB)    (MI)  (FT/S)
CALUMET HARBOR    23     150/  6/ 10 1026.2F
BURNS HARBOR      24     170/  9/ 12 1027.8F
SAINT JOSEPH      23     160/  3/  7 1028.1

$$
&&




USA.gov is the U.S. government's official web portal to all federal, state and local government web resources and services.